This is the latest recevied weather packets stored in our database for station/object KI7MOQ. If no packets are shown the sender has not sent any weather packets the latest 10 day(s).
| Time | Temp. | Humidity | Pressure | Rain* | Wind** | Luminosity | Snow |
|---|---|---|---|---|---|---|---|
| 1778185522 | 17.78° C | 51% | 1021.8 hPa | 0 mm | - | 56 W/m² | - |
| 1778185218 | 17.22° C | 52% | 1021.9 hPa | 0 mm | - | 54 W/m² | - |
| 1778184914 | 17.22° C | 53% | 1021.8 hPa | 0 mm | - | 53 W/m² | - |
| 1778184610 | 17.22° C | 51% | 1021.8 hPa | 0 mm | - | 55 W/m² | - |
| 1778184306 | 17.22° C | 51% | 1021.8 hPa | 0 mm | - | 63 W/m² | - |
| 1778184002 | 16.67° C | 52% | 1021.9 hPa | 0 mm | - | 58 W/m² | - |
| 1778183700 | 16.67° C | 54% | 1021.9 hPa | 0 mm | - | 74 W/m² | - |
| 1778183397 | 16.67° C | 54% | 1022.1 hPa | 0 mm | - | 45 W/m² | - |
| 1778183093 | 17.22° C | 52% | 1022 hPa | 0 mm | - | 44 W/m² | - |
| 1778182789 | 16.67° C | 53% | 1022.2 hPa | 0 mm | - | 46 W/m² | - |
| 1778182487 | 16.67° C | 51% | 1022.1 hPa | 0 mm | - | 443 W/m² | - |
| 1778182183 | 16.67° C | 53% | 1022.3 hPa | 0 mm | - | 72 W/m² | - |
| 1778181879 | 16.67° C | 53% | 1022.4 hPa | 0 mm | - | 54 W/m² | - |
| 1778181577 | 16.67° C | 54% | 1022.4 hPa | 0 mm | - | 98 W/m² | - |
| 1778181272 | 16.11° C | 56% | 1022.4 hPa | 0 mm | - | 265 W/m² | - |
| 1778180969 | 15.56° C | 57% | 1022.5 hPa | 0 mm | - | 622 W/m² | - |
| 1778180667 | 15.56° C | 57% | 1022.5 hPa | 0 mm | - | 618 W/m² | - |
| 1778180366 | 15.56° C | 58% | 1022.6 hPa | 0 mm | - | 599 W/m² | - |
| 1778180062 | 16.67° C | 58% | 1022.6 hPa | 0 mm | - | 545 W/m² | - |
| 1778179759 | 16.11° C | 58% | 1022.7 hPa | 0 mm | - | 581 W/m² | - |
| 1778179457 | 15.56° C | 59% | 1022.6 hPa | 0 mm | - | 545 W/m² | - |
| 1778179155 | 15.56° C | 58% | 1022.8 hPa | 0 mm | - | 578 W/m² | - |
| 1778178851 | 15° C | 60% | 1022.7 hPa | 0 mm | - | 262 W/m² | - |
| 1778178549 | 15° C | 61% | 1022.8 hPa | 0 mm | - | 42 W/m² | - |
| 1778178244 | 14.44° C | 63% | 1022.8 hPa | 0 mm | - | 38 W/m² | - |
* Rain latest hour (hover to see other rain measurements)
** Current wind speed in m/s (hover to see current wind gust speed)